Regional Weather Roundup
Issued by NWS

Home | Current Version | Previous Version | Graphics & Text | Print | Product List | Glossary On
Versions: 1 2 3 4 5 6 7 8 9 10 11 12 13 14 15 16 17 18 19 20 21 22 23 24 25 26 27 28 29 30 31 32 33 34 35 36 37 38 39 40 41 42 43 44 45 46 47 48 49 50
000
ASUS44 KMEG 210510
RWRTN
TENNESSEE HOURLY STATE WEATHER ROUNDUP
NATIONAL WEATHER SERVICE MEMPHIS TN
1100 PM CST MON NOV 20 2017

TNZ002-004-019-021-049-052-054-088>092-210600-
WEST TENNESSEE

CITY           SKY/WX    TMP DP  RH WIND       PRES   REMARKS
MEMPHIS INTL   CLEAR     42  29  59 S7        30.06S
NWS MEMPHIS      N/A     39 N/A N/A MISG        N/A
JACKSON        PTCLDY    42  29  59 S6        30.07S
DYERSBURG      CLEAR     41  26  55 SW5       30.05F
SOMERVILLE     CLEAR     39  28  65 S5        30.05S
COVINGTON      CLEAR     34  27  75 S6        30.05F WCI  29
UNION CITY     CLEAR     36  27  69 CALM      30.04S
BOLIVAR        CLEAR     39  28  65 S5        30.06F
PARIS          CLEAR     39  27  60 S8        30.03F WCI  34
HUNTINGDON     CLEAR     39  28  65 S6        30.04F WCI  35
LEXINGTON      CLEAR     36  28  75 SE3       30.07F
SELMER         CLEAR     43  27  52 S9        30.06F
SAVANNAH       CLEAR     32  30  93 S3        30.08F
$$

TNZ008-025-027-028-033-062-065-066-210600-
NORTH MIDDLE TENNESSEE

CITY           SKY/WX    TMP DP  RH WIND       PRES   REMARKS
NASHVILLE      CLOUDY    38  27  64 S3        30.10S
PORTLAND       CLEAR     39  27  60 S9        30.06F WCI  33
CLARKSVILLE    PTCLDY    35  24  64 SE3       30.06F
SMYRNA         CLOUDY    30  27  88 CALM      30.11F
COOKEVILLE     CLEAR     32  27  80 S3        30.10S
GALLATIN       CLEAR     32  28  86 CALM      30.12S
CROSSVILLE     CLOUDY    44  28  53 S9G20     30.11S
$$

TNZ061-075-076-078-094-096-097-210600-
SOUTH MIDDLE TENNESSEE

CITY           SKY/WX    TMP DP  RH WIND       PRES   REMARKS
FAYETTEVILLE   CLEAR     45  30  57 S8        30.10S
TULLAHOMA      CLEAR     41  30  65 S6        30.10S
WINCHESTER     CLEAR     41  28  60 CALM      30.12S
MCMINNVILLE    CLEAR     37  28  70 CALM      30.10F
COLUMBIA       CLEAR     32  30  93 CALM      30.09S
SHELBYVILLE    CLEAR     32  28  86 S5        30.11S WCI  27
$$

TNZ017-018-042-046-047-210600-
NORTHEAST TENNESSEE

CITY           SKY/WX    TMP DP  RH WIND       PRES   REMARKS
TRI CITIES     CLOUDY    29  24  82 CALM      30.13S
ELIZABETHTON   CLEAR     37  25  60 NE5       30.14S WCI  34
$$

TNZ012-013-036-069-073-074-210600-
CENTRAL EAST TENNESSEE

CITY           SKY/WX    TMP DP  RH WIND       PRES   REMARKS
KNOXVILLE      CLOUDY    32  31  96 CALM      30.12F
OAK RIDGE      CLOUDY    32  30  92 CALM      30.15F
DOWNTOWN KNOXV   N/A     32  32 100 CALM      30.14F
GATLINBURG     CLEAR     30  30 100 CALM      30.13F
MORRISTOWN     CLEAR     32  25  74 CALM      30.12F
JACKSBORO      CLEAR     28  27  93 CALM      30.16S
$$

TNZ083-085-099-210600-
SOUTHEAST TENNESSEE

CITY           SKY/WX    TMP DP  RH WIND       PRES   REMARKS
CHATTANOOGA    CLOUDY    37  33  85 CALM      30.16S
DAYTON         CLEAR     32  32 100 N3        30.15S
$$

SKY/WX REPORTED AS FAIR MEANS FEW OR NO CLOUDS BELOW
12 THOUSAND FEET.





USA.gov is the U.S. government's official web portal to all federal, state and local government web resources and services.